FW9423 Weather Reports


Display with metric or nautical units.
time (UTC)temp
F
wind
direction
speed
MPH
gust
MPH
rain 1hr
in
rain 24hr
in
rain mn
in
humidity
%
barometer
mb
20260831024603 78 283 1.0 5.0 0.00 0.00 0.00 40 1022.9
20260831024040 78 348 1.0 7.0 0.00 0.00 0.00 39 1022.8
20260831023543 78 360 1.0 7.0 0.00 0.00 0.00 39 1023.0
20260831023105 78 360 2.0 7.0 0.00 0.00 0.00 38 1023.0
20260831022547 78 291 2.0 6.0 0.00 0.00 0.00 40 1023.1
20260831022043 77 360 2.0 6.0 0.00 0.00 0.00 41 1023.1
20260831021557 77 360 3.0 6.0 0.00 0.00 0.00 40 1023.3
20260831021043 76 0 2.0 6.0 0.00 0.00 0.00 39 1023.2
20260831020541 76 360 2.0 6.0 0.00 0.00 0.00 42 1023.3
20260831020105 76 360 1.0 6.0 0.00 0.00 0.00 39 1023.2
20260831015542 76 360 2.0 6.0 0.00 0.00 0.00 40 1023.4
20260831015042 75 360 1.0 6.0 0.00 0.00 0.00 42 1023.5
20260831014618 75 360 2.0 6.0 0.00 0.00 0.00 42 1023.5
20260831014043 75 360 1.0 6.0 0.00 0.00 0.00 42 1023.5
20260831013542 74 360 1.0 6.0 0.00 0.00 0.00 44 1023.6
20260831013058 72 360 1.0 6.0 0.00 0.00 0.00 49 1023.7
20260831012545 71 32 1.0 4.0 0.00 0.00 0.00 47 1023.8
20260831012043 70 0 0.0 4.0 0.00 0.00 0.00 49 1023.9
20260831011604 69 0 0.0 6.0 0.00 0.00 0.00 52 1023.9
20260831011042 68 36 0.0 6.0 0.00 0.00 0.00 55 1023.9
20260831010542 67 20 3.0 6.0 0.00 0.00 0.00 54 1023.9
20260831010107 66 360 2.0 5.0 0.00 0.00 0.00 56 1023.8
20260831005543 65 360 2.0 6.0 0.00 0.00 0.00 59 1023.8
20260831005044 65 360 2.0 9.0 0.00 0.00 0.00 59 1023.8
20260831004604 64 360 3.0 9.0 0.00 0.00 0.00 59 1023.7
20260831004043 64 360 3.0 5.0 0.00 0.00 0.00 60 1023.9
20260831003542 63 360 3.0 6.0 0.00 0.00 0.00 61 1023.8
20260831003105 63 360 3.0 6.0 0.00 0.00 0.00 61 1023.8
20260831002543 63 360 3.0 5.0 0.00 0.00 0.00 62 1023.8
20260831002046 62 360 2.0 5.0 0.00 0.00 0.00 62 1023.8
20260831001633 62 360 2.0 5.0 0.00 0.00 0.00 62 1023.8
20260831001043 62 360 2.0 5.0 0.00 0.00 0.00 63 1023.9
20260831000543 61 360 2.0 6.0 0.00 0.00 0.00 64 1023.8
20260831000105 61 360 3.0 6.0 0.00 0.00 0.00 65 1023.9
20260830235542 61 360 3.0 5.0 0.00 0.00 0.00 64 1023.8
20260830235046 61 360 2.0 5.0 0.00 0.00 0.00 66 1023.8
20260830234608 60 360 2.0 4.0 0.00 0.00 0.00 67 1023.8
20260830234043 60 360 2.0 4.0 0.00 0.00 0.00 67 1023.8
20260830233544 60 360 2.0 4.0 0.00 0.00 0.00 68 1023.8
20260830233131 60 360 1.0 4.0 0.00 0.00 0.00 68 1023.8
20260830232542 59 360 1.0 4.0 0.00 0.00 0.00 69 1023.7
20260830232044 59 360 2.0 4.0 0.00 0.00 0.00 69 1023.6
20260830231601 59 360 2.0 4.0 0.00 0.00 0.00 69 1023.6
20260830231043 59 360 1.0 3.0 0.00 0.00 0.00 70 1023.6
20260830230545 59 360 0.0 2.0 0.00 0.00 0.00 71 1023.6
20260830230110 58 360 1.0 2.0 0.00 0.00 0.00 71 1023.7
20260830225544 58 360 0.0 2.0 0.00 0.00 0.00 72 1023.7
20260830225043 58 0 0.0 2.0 0.00 0.00 0.00 72 1023.7
20260830224601 58 0 0.0 3.0 0.00 0.00 0.00 73 1023.6
20260830224045 58 0 0.0 3.0 0.00 0.00 0.00 73 1023.6
20260830223544 58 360 0.0 2.0 0.00 0.00 0.00 73 1023.6
20260830223058 58 360 1.0 2.0 0.00 0.00 0.00 74 1023.6
20260830222543 57 360 0.0 2.0 0.00 0.00 0.00 73 1023.6
20260830222045 57 0 0.0 1.0 0.00 0.00 0.00 74 1023.6
20260830221607 56 0 0.0 0.0 0.00 0.00 0.00 74 1023.5
20260830221046 56 0 0.0 0.0 0.00 0.00 0.00 74 1023.3
20260830220543 56 0 0.0 2.0 0.00 0.00 0.00 74 1023.2
20260830220106 56 0 0.0 3.0 0.00 0.00 0.00 74 1023.1
20260830215543 56 360 1.0 3.0 0.00 0.00 0.00 74 1023.1
20260830215046 56 360 1.0 3.0 0.00 0.00 0.00 74 1022.9
20260830214605 55 360 1.0 3.0 0.00 0.00 0.00 75 1022.8
20260830214044 55 360 1.0 3.0 0.00 0.00 0.00 75 1022.8
20260830213544 55 360 1.0 3.0 0.00 0.00 0.00 75 1022.7
20260830213104 55 360 1.0 2.0 0.00 0.00 0.00 75 1022.7
20260830212547 55 360 1.0 3.0 0.00 0.00 0.00 75 1022.7
20260830212045 55 360 1.0 3.0 0.00 0.00 0.00 76 1022.7
20260830211601 55 360 1.0 2.0 0.00 0.00 0.00 76 1022.6
20260830211044 55 360 1.0 2.0 0.00 0.00 0.00 76 1022.6
20260830210542 55 360 1.0 3.0 0.00 0.00 0.00 76 1022.7
20260830210109 55 360 0.0 3.0 0.00 0.00 0.00 75 1022.7
20260830205549 55 360 1.0 3.0 0.00 0.00 0.00 75 1022.5
20260830205046 56 360 1.0 3.0 0.00 0.00 0.00 75 1022.5
20260830204606 56 360 1.0 2.0 0.00 0.00 0.00 75 1022.4
20260830204044 56 360 1.0 2.0 0.00 0.00 0.00 75 1022.3
20260830203541 56 360 1.0 2.0 0.00 0.00 0.00 75 1022.4
20260830203106 56 360 1.0 2.0 0.00 0.00 0.00 75 1022.4
20260830202541 56 360 1.0 2.0 0.00 0.00 0.00 75 1022.3
20260830202044 56 360 1.0 2.0 0.00 0.00 0.00 75 1022.3
20260830201608 56 360 1.0 2.0 0.00 0.00 0.00 75 1022.3
20260830201044 56 360 1.0 2.0 0.00 0.00 0.00 74 1022.3
20260830200544 56 360 1.0 2.0 0.00 0.00 0.00 74 1022.3
20260830200105 56 360 0.0 2.0 0.00 0.00 0.00 74 1022.3
20260830195546 56 0 0.0 2.0 0.00 0.00 0.00 74 1022.3
20260830195044 56 360 1.0 2.0 0.00 0.00 0.00 75 1022.4
20260830194602 56 360 1.0 3.0 0.00 0.00 0.00 75 1022.3
20260830194046 56 360 0.0 3.0 0.00 0.00 0.00 75 1022.3
20260830193542 56 360 1.0 3.0 0.00 0.00 0.00 75 1022.3
20260830193054 56 360 1.0 3.0 0.00 0.00 0.00 75 1022.3
20260830192543 57 360 1.0 3.0 0.00 0.00 0.00 74 1022.4
20260830192044 57 360 1.0 3.0 0.00 0.00 0.00 74 1022.3
20260830191609 57 360 1.0 4.0 0.00 0.00 0.00 74 1022.3
20260830191045 57 360 1.0 4.0 0.00 0.00 0.00 74 1022.4
20260830190540 57 360 2.0 4.0 0.00 0.00 0.00 74 1022.3
20260830185547 57 360 2.0 4.0 0.00 0.00 0.00 73 1022.4
20260830185044 58 360 1.0 4.0 0.00 0.00 0.00 72 1022.5
20260830184556 58 360 2.0 4.0 0.00 0.00 0.00 72 1022.5
20260830184043 58 360 2.0 3.0 0.00 0.00 0.00 72 1022.5
20260830183544 58 360 2.0 3.0 0.00 0.00 0.00 72 1022.6
20260830183110 58 360 1.0 3.0 0.00 0.00 0.00 72 1022.8
20260830182543 58 360 1.0 3.0 0.00 0.00 0.00 72 1022.7
20260830182043 58 360 1.0 4.0 0.00 0.00 0.00 72 1022.7
20260830181602 59 360 1.0 4.0 0.00 0.00 0.00 71 1022.7
20260830181046 59 360 1.0 3.0 0.00 0.00 0.00 71 1022.8
20260830180542 59 360 1.0 3.0 0.00 0.00 0.00 71 1022.9
20260830175543 60 360 1.0 3.0 0.00 0.00 0.00 70 1022.9
20260830175044 60 360 1.0 3.0 0.00 0.00 0.00 69 1022.9
20260830174615 60 360 1.0 3.0 0.00 0.00 0.00 69 1023.1
20260830174042 60 360 2.0 3.0 0.00 0.00 0.00 69 1023.1
20260830173542 60 360 1.0 3.0 0.00 0.00 0.00 69 1023.2
20260830173104 60 360 2.0 4.0 0.00 0.00 0.00 69 1023.2
20260830172542 61 360 2.0 4.0 0.00 0.00 0.00 69 1023.4
20260830172042 61 360 1.0 3.0 0.00 0.00 0.00 68 1023.3
20260830171607 61 360 1.0 4.0 0.00 0.00 0.00 67 1023.3
20260830171042 62 360 1.0 5.0 0.00 0.00 0.00 67 1023.5
20260830170542 62 360 2.0 6.0 0.00 0.00 0.00 66 1023.4
20260830170058 62 360 3.0 6.0 0.00 0.00 0.00 66 1023.4
20260830165542 62 360 3.0 6.0 0.00 0.00 0.00 66 1023.4
20260830165045 62 360 3.0 5.0 0.00 0.00 0.00 67 1023.6
20260830164601 62 360 2.0 5.0 0.00 0.00 0.00 67 1023.7
20260830164042 61 360 2.0 5.0 0.00 0.00 0.00 68 1023.8
20260830163542 61 360 2.0 4.0 0.00 0.00 0.00 68 1023.8
20260830163101 61 360 1.0 4.0 0.00 0.00 0.00 68 1024.0
20260830162541 61 360 2.0 4.0 0.00 0.00 0.00 68 1024.0
20260830162042 62 360 2.0 5.0 0.00 0.00 0.00 68 1024.0
20260830161606 62 360 2.0 5.0 0.00 0.00 0.00 67 1024.1
20260830161044 62 360 2.0 5.0 0.00 0.00 0.00 67 1024.1
20260830160544 62 360 2.0 5.0 0.00 0.00 0.00 66 1024.2
20260830160112 62 360 2.0 6.0 0.00 0.00 0.00 66 1024.1
20260830155541 62 360 2.0 6.0 0.00 0.00 0.00 66 1024.1
20260830155041 62 360 2.0 5.0 0.00 0.00 0.00 67 1024.0
20260830154559 62 360 2.0 5.0 0.00 0.00 0.00 67 1024.2
20260830154041 62 360 2.0 6.0 0.00 0.00 0.00 67 1024.1
20260830153540 62 360 2.0 6.0 0.00 0.00 0.00 67 1024.3
20260830153057 62 360 3.0 6.0 0.00 0.00 0.00 67 1024.2
20260830152543 62 360 3.0 6.0 0.00 0.00 0.00 68 1024.1
20260830152040 62 360 3.0 6.0 0.00 0.00 0.00 68 1024.2
20260830151555 62 360 3.0 6.0 0.00 0.00 0.00 68 1024.3
20260830151040 62 360 3.0 5.0 0.00 0.00 0.00 68 1024.4
20260830150542 62 360 3.0 5.0 0.00 0.00 0.00 68 1024.5
20260830150056 62 360 3.0 6.0 0.00 0.00 0.00 67 1024.6
20260830145542 62 360 3.0 6.0 0.00 0.00 0.00 67 1024.6
20260830145042 62 360 2.0 5.0 0.00 0.00 0.00 67 1024.6
20260830144605 62 360 2.0 5.0 0.00 0.00 0.00 67 1024.7
20260830144044 63 360 3.0 8.0 0.00 0.00 0.00 66 1024.7
20260830143543 63 360 3.0 8.0 0.00 0.00 0.00 66 1024.6
20260830143058 63 360 2.0 6.0 0.00 0.00 0.00 66 1024.8
20260830142540 63 360 3.0 8.0 0.00 0.00 0.00 66 1024.7
20260830142040 63 360 4.0 8.0 0.00 0.00 0.00 66 1024.7
20260830141552 62 360 4.0 9.0 0.00 0.00 0.00 66 1024.8
20260830141042 62 360 3.0 9.0 0.00 0.00 0.00 67 1024.8
20260830140539 62 360 2.0 5.0 0.00 0.00 0.00 67 1024.8
20260830135539 63 360 2.0 6.0 0.00 0.00 0.00 66 1024.8
20260830135042 63 360 3.0 6.0 0.00 0.00 0.00 65 1024.9
20260830134605 63 360 3.0 6.0 0.00 0.00 0.00 65 1025.0
20260830134040 63 360 2.0 5.0 0.00 0.00 0.00 65 1025.1
20260830133539 63 360 2.0 5.0 0.00 0.00 0.00 65 1025.3
20260830133058 63 360 3.0 5.0 0.00 0.00 0.00 65 1025.4
20260830132540 63 360 2.0 4.0 0.00 0.00 0.00 64 1025.5
20260830132040 63 360 2.0 4.0 0.00 0.00 0.00 64 1025.5
20260830131600 64 360 2.0 4.0 0.00 0.00 0.00 63 1025.7
20260830131041 64 360 2.0 5.0 0.00 0.00 0.00 63 1025.6
20260830130540 64 360 2.0 5.0 0.00 0.00 0.00 62 1025.7
20260830130108 64 360 2.0 5.0 0.00 0.00 0.00 62 1025.7
20260830125544 64 360 2.0 5.0 0.00 0.00 0.00 62 1025.8
20260830125039 64 360 2.0 4.0 0.00 0.00 0.00 62 1025.8
20260830124556 64 360 1.0 4.0 0.00 0.00 0.00 61 1025.9
20260830124042 65 360 1.0 6.0 0.00 0.00 0.00 60 1026.0
20260830123546 65 360 2.0 6.0 0.00 0.00 0.00 60 1025.9
20260830123105 65 360 3.0 5.0 0.00 0.00 0.00 60 1025.7
20260830122541 65 360 2.0 4.0 0.00 0.00 0.00 60 1025.8
20260830122045 65 360 2.0 4.0 0.00 0.00 0.00 60 1025.8
20260830121606 65 360 2.0 4.0 0.00 0.00 0.00 61 1025.8
20260830121042 65 360 2.0 4.0 0.00 0.00 0.00 60 1025.9
20260830120543 65 360 1.0 4.0 0.00 0.00 0.00 61 1025.8
20260830120105 65 360 1.0 4.0 0.00 0.00 0.00 62 1025.8
20260830115543 65 360 1.0 3.0 0.00 0.00 0.00 63 1025.7
20260830115041 65 360 1.0 3.0 0.00 0.00 0.00 63 1025.7
20260830114615 65 360 1.0 3.0 0.00 0.00 0.00 63 1025.7
20260830114045 65 360 1.0 3.0 0.00 0.00 0.00 64 1025.7
20260830113542 65 0 1.0 4.0 0.00 0.00 0.00 65 1025.6
20260830113108 65 360 2.0 4.0 0.00 0.00 0.00 65 1025.6
20260830112540 65 360 1.0 4.0 0.00 0.00 0.00 65 1025.5
20260830112044 66 360 2.0 4.0 0.00 0.00 0.00 63 1025.6
20260830111603 67 360 2.0 10.0 0.00 0.00 0.00 62 1025.6
20260830111044 67 360 3.0 10.0 0.00 0.00 0.00 60 1025.3
20260830110541 67 360 6.0 10.0 0.00 0.00 0.00 60 1025.2
20260830105542 66 360 2.0 4.0 0.00 0.00 0.00 63 1025.5
20260830105039 66 360 1.0 4.0 0.00 0.00 0.00 63 1025.6
20260830104603 66 360 2.0 4.0 0.00 0.00 0.00 62 1025.5
20260830104042 65 360 1.0 4.0 0.00 0.00 0.00 62 1025.5
20260830103542 66 360 1.0 2.0 0.00 0.00 0.00 62 1025.5
20260830103103 66 0 0.0 2.0 0.00 0.00 0.00 61 1025.6
20260830102544 66 360 1.0 2.0 0.00 0.00 0.00 61 1025.4
20260830102040 66 0 1.0 2.0 0.00 0.00 0.00 61 1025.5
20260830101601 66 360 1.0 2.0 0.00 0.00 0.00 61 1025.4
20260830101043 66 0 1.0 2.0 0.00 0.00 0.00 61 1025.5
20260830100544 66 360 1.0 2.0 0.00 0.00 0.00 63 1025.4
20260830100058 67 360 0.0 3.0 0.00 0.00 0.00 63 1025.3
20260830095546 67 360 1.0 3.0 0.00 0.00 0.00 62 1025.3
20260830095044 67 0 0.0 0.0 0.00 0.00 0.00 61 1025.4
20260830094605 67 0 0.0 0.0 0.00 0.00 0.00 62 1025.5
20260830094048 67 0 0.0 0.0 0.00 0.00 0.00 64 1025.5
20260830093544 68 0 0.0 0.0 0.00 0.00 0.00 64 1025.5
20260830093101 68 0 0.0 0.0 0.00 0.00 0.00 63 1025.5
20260830092546 69 0 0.0 0.0 0.00 0.00 0.00 63 1025.5
20260830092044 69 0 0.0 0.0 0.00 0.00 0.00 61 1025.3
20260830091601 69 0 0.0 0.0 0.00 0.00 0.00 60 1025.3
20260830091043 70 0 0.0 0.0 0.00 0.00 0.00 57 1025.2
20260830090543 70 0 0.0 0.0 0.00 0.00 0.00 56 1025.2
20260830090105 70 0 0.0 0.0 0.00 0.00 0.00 55 1025.1
20260830085541 71 0 0.0 1.0 0.00 0.00 0.00 55 1025.2
20260830085044 71 0 0.0 1.0 0.00 0.00 0.00 56 1025.1
20260830084602 71 0 0.0 1.0 0.00 0.00 0.00 54 1025.0
20260830084044 71 0 0.0 1.0 0.00 0.00 0.00 53 1024.9
20260830083542 71 0 0.0 1.0 0.00 0.00 0.00 54 1024.8
20260830083058 71 360 0.0 2.0 0.00 0.00 0.00 52 1024.7
20260830082543 71 0 0.0 2.0 0.00 0.00 0.00 54 1024.7
20260830082044 71 360 1.0 2.0 0.00 0.00 0.00 53 1024.6
20260830081605 71 360 0.0 2.0 0.00 0.00 0.00 54 1024.5
20260830081044 70 0 0.0 2.0 0.00 0.00 0.00 54 1024.5
20260830080541 70 360 0.0 2.0 0.00 0.00 0.00 55 1024.5
20260830080104 70 360 0.0 3.0 0.00 0.00 0.00 55 1024.5
20260830075545 70 0 0.0 3.0 0.00 0.00 0.00 56 1024.5
20260830075044 70 360 1.0 3.0 0.00 0.00 0.00 57 1024.3
20260830074607 71 360 1.0 2.0 0.00 0.00 0.00 55 1024.3
20260830074044 71 360 0.0 2.0 0.00 0.00 0.00 54 1024.5
20260830073544 71 0 0.0 2.0 0.00 0.00 0.00 53 1024.5
20260830073121 72 0 0.0 3.0 0.00 0.00 0.00 53 1024.6
20260830072544 72 0 0.0 3.0 0.00 0.00 0.00 51 1024.6
20260830072044 72 0 1.0 3.0 0.00 0.00 0.00 49 1024.6
20260830071600 72 360 1.0 2.0 0.00 0.00 0.00 48 1024.6
20260830071044 72 137 0.0 3.0 0.00 0.00 0.00 49 1024.6
20260830070641 72 0 0.0 4.0 0.00 0.00 0.00 47 1024.7
20260830070112 72 137 1.0 4.0 0.00 0.00 0.00 46 1024.6
20260830065547 72 75 1.0 4.0 0.00 0.00 0.00 47 1024.8
20260830065043 72 136 1.0 6.0 0.00 0.00 0.00 47 1024.9
20260830064601 72 142 1.0 6.0 0.00 0.00 0.00 48 1024.7
20260830064043 72 360 2.0 4.0 0.00 0.00 0.00 48 1024.7
20260830063541 72 360 1.0 5.0 0.00 0.00 0.00 48 1024.8
20260830063113 72 360 1.0 5.0 0.00 0.00 0.00 50 1024.8
20260830062544 72 360 2.0 5.0 0.00 0.00 0.00 50 1024.6
20260830062044 72 360 2.0 5.0 0.00 0.00 0.00 48 1024.9
20260830061603 72 360 2.0 5.0 0.00 0.00 0.00 47 1024.9
20260830061044 72 360 1.0 4.0 0.00 0.00 0.00 47 1024.9
20260830060542 72 360 1.0 4.0 0.00 0.00 0.00 46 1025.0
20260830060107 72 0 2.0 4.0 0.00 0.00 0.00 45 1025.0
20260830055542 72 360 1.0 4.0 0.00 0.00 0.00 46 1025.2
20260830055044 72 360 1.0 5.0 0.00 0.00 0.00 46 1025.1
20260830054605 72 360 1.0 5.0 0.00 0.00 0.00 47 1025.2
20260830054046 72 360 2.0 5.0 0.00 0.00 0.00 46 1025.2
20260830053542 73 360 2.0 6.0 0.00 0.00 0.00 46 1025.3
20260830053104 73 360 3.0 6.0 0.00 0.00 0.00 44 1025.2
20260830052541 73 360 2.0 6.0 0.00 0.00 0.00 44 1025.3
20260830052042 73 360 2.0 5.0 0.00 0.00 0.00 45 1025.4
20260830051610 73 360 2.0 4.0 0.00 0.00 0.00 44 1025.4
20260830051041 73 360 1.0 3.0 0.00 0.00 0.00 44 1025.4
20260830050544 72 360 1.0 3.0 0.00 0.00 0.00 47 1025.5
20260830050100 72 360 0.0 1.0 0.00 0.00 0.00 50 1025.5
20260830045543 71 0 0.0 1.0 0.00 0.00 0.00 49 1025.5
20260830045048 71 0 0.0 3.0 0.00 0.00 0.00 53 1025.6
20260830044609 71 0 0.0 4.0 0.00 0.00 0.00 51 1025.6
20260830044043 71 0 1.0 4.0 0.00 0.00 0.00 48 1025.6
20260830043543 71 360 2.0 4.0 0.00 0.00 0.00 46 1025.5
20260830043103 72 360 2.0 3.0 0.00 0.00 0.00 44 1025.8
20260830042542 72 360 0.0 3.0 0.00 0.00 0.00 44 1026.0
20260830042042 72 360 0.0 3.0 0.00 0.00 0.00 44 1026.3
20260830041647 72 360 1.0 3.0 0.00 0.00 0.00 44 1026.3
20260830041046 72 360 1.0 3.0 0.00 0.00 0.00 44 1026.3
20260830040544 73 0 0.0 3.0 0.00 0.00 0.00 42 1026.4
20260830040114 73 360 1.0 3.0 0.00 0.00 0.00 41 1026.5
20260830035541 73 0 0.0 2.0 0.00 0.01 0.00 43 1026.6
20260830035041 73 360 0.0 2.0 0.00 0.01 0.00 43 1026.7
20260830034620 73 360 0.0 2.0 0.00 0.01 0.00 41 1026.8
20260830034041 73 0 0.0 4.0 0.00 0.01 0.00 42 1026.9
20260830033539 74 360 0.0 4.0 0.00 0.01 0.00 41 1027.0
20260830033105 75 360 1.0 4.0 0.00 0.01 0.00 40 1027.1
20260830032543 75 0 1.0 5.0 0.00 0.01 0.00 42 1027.2
20260830032042 76 360 1.0 5.0 0.00 0.01 0.00 40 1027.3
20260830031600 76 27 1.0 5.0 0.00 0.01 0.00 39 1027.3
20260830031041 77 325 1.0 4.0 0.00 0.01 0.00 37 1027.4
20260830030542 76 328 0.0 5.0 0.00 0.01 0.00 39 1027.4
20260830030054 76 301 2.0 5.0 0.00 0.01 0.00 39 1027.6
20260830025542 75 36 1.0 5.0 0.00 0.01 0.00 39 1027.6
20260830025042 75 53 2.0 4.0 0.00 0.01 0.00 38 1027.7